SDR31KX EDDB-GCLP

Flight info

Callsign SDR31KX
Flight time N/A
Altitude 34000
Route KISUC Z20 MAG Z92 ABGUS DCT WRB DCT LENDO DCT RASCA DCT FAMEN/N0452F350 DCT BSN DCT BUZIK DCT RESMI UN857 DISAK DCT ARKIP DCT ARNAV DCT LMG DCT UVELI DCT OSMOB DCT VAVIX DCT BTZ DCT URUNA DCT SSN DCT VRA DCT NEA L14 ADINO DCT ELVAR DCT OSLAD/N0449F370 UR724 IBALU UN857 TERTO
Aircraft A320/M-SDE2FGHIM1RWXY/HB1

Departure

Time N/A
Airport Berlin Brandenburg Airport (EDDB)

Arrival

Time 2026-04-27 17:50
Airport Gran Canaria Airport (GCLP)
Time Latitude Longitude Altitude Speed Heading
2026-04-27 16:22 34.90098 -8.64854 36178 ft 433 kts 194°
2026-04-27 16:22 34.87173 -8.65759 36347 ft 433 kts 194°
2026-04-27 16:23 34.84214 -8.66669 36525 ft 433 kts 194°
2026-04-27 16:23 34.78421 -8.68462 36843 ft 432 kts 194°
2026-04-27 16:24 34.72548 -8.70273 36875 ft 432 kts 194°
2026-04-27 16:25 34.60890 -8.73857 36872 ft 432 kts 194°
2026-04-27 16:26 34.49220 -8.77436 36870 ft 433 kts 194°
2026-04-27 16:26 34.43612 -8.80010 36865 ft 433 kts 210°
2026-04-27 16:27 34.38787 -8.84357 36864 ft 433 kts 218°
2026-04-27 16:28 34.26965 -8.95710 36859 ft 434 kts 218°
2026-04-27 16:29 34.15112 -9.07029 36866 ft 435 kts 218°
2026-04-27 16:30 34.05595 -9.16118 36868 ft 435 kts 217°
2026-04-27 16:31 33.93713 -9.27404 36872 ft 435 kts 217°
2026-04-27 16:32 33.86583 -9.34165 36871 ft 435 kts 217°
2026-04-27 16:33 33.79447 -9.40897 36873 ft 434 kts 217°
2026-04-27 16:33 33.74695 -9.45375 36873 ft 434 kts 218°
2026-04-27 16:34 33.69945 -9.49859 36872 ft 434 kts 218°
2026-04-27 16:34 33.65194 -9.54332 36876 ft 434 kts 218°
2026-04-27 16:35 33.60446 -9.58799 36875 ft 434 kts 218°
2026-04-27 16:36 33.53319 -9.65490 36878 ft 433 kts 218°
2026-04-27 16:36 33.48564 -9.69928 36873 ft 433 kts 218°
2026-04-27 16:37 33.43810 -9.74367 36879 ft 433 kts 218°
2026-04-27 16:37 33.39030 -9.78831 36877 ft 433 kts 218°
2026-04-27 16:38 33.34282 -9.83269 36876 ft 433 kts 218°
2026-04-27 16:38 33.29526 -9.87693 36876 ft 433 kts 218°
2026-04-27 16:39 33.25569 -9.91362 36871 ft 433 kts 218°
2026-04-27 16:39 33.20811 -9.95777 36888 ft 433 kts 218°
2026-04-27 16:40 33.16052 -10.00193 36881 ft 433 kts 218°
2026-04-27 16:40 33.11296 -10.04601 36873 ft 433 kts 218°
2026-04-27 16:41 33.06535 -10.09007 36881 ft 433 kts 218°
2026-04-27 16:41 33.01742 -10.13429 36879 ft 433 kts 218°
2026-04-27 16:42 32.96979 -10.17817 36884 ft 433 kts 218°
2026-04-27 16:42 32.92218 -10.22198 36890 ft 433 kts 218°
2026-04-27 16:43 32.87453 -10.26576 36894 ft 432 kts 218°
2026-04-27 16:43 32.82686 -10.30944 36890 ft 432 kts 218°
2026-04-27 16:44 32.77917 -10.35299 36891 ft 432 kts 218°
2026-04-27 16:44 32.73152 -10.39649 36901 ft 432 kts 218°
2026-04-27 16:45 32.68388 -10.43995 36897 ft 432 kts 218°
2026-04-27 16:45 32.63628 -10.48344 36905 ft 432 kts 218°
2026-04-27 16:46 32.58871 -10.52681 36898 ft 431 kts 218°
2026-04-27 16:46 32.54109 -10.57009 36899 ft 431 kts 218°
2026-04-27 16:47 32.49343 -10.61326 36903 ft 431 kts 218°
2026-04-27 16:47 32.44583 -10.65648 36905 ft 431 kts 218°
2026-04-27 16:48 32.39826 -10.69969 36913 ft 431 kts 218°
2026-04-27 16:48 32.35066 -10.74278 36914 ft 431 kts 218°
2026-04-27 16:49 32.27896 -10.80756 36919 ft 431 kts 218°
2026-04-27 16:49 32.23132 -10.85050 36921 ft 430 kts 218°
2026-04-27 16:50 32.18371 -10.89334 36920 ft 430 kts 218°
2026-04-27 16:50 32.13613 -10.93616 36925 ft 430 kts 218°
2026-04-27 16:51 32.08843 -10.97886 36925 ft 430 kts 218°
2026-04-27 16:51 32.04084 -11.02148 36931 ft 430 kts 218°
2026-04-27 16:52 31.99326 -11.06409 36935 ft 429 kts 218°
2026-04-27 16:52 31.94574 -11.10662 36937 ft 429 kts 218°
2026-04-27 16:53 31.89785 -11.14934 36934 ft 429 kts 218°
2026-04-27 16:53 31.85028 -11.19170 36941 ft 428 kts 218°
2026-04-27 16:54 31.80280 -11.23395 36944 ft 428 kts 218°
2026-04-27 16:54 31.75531 -11.27613 36945 ft 428 kts 218°
2026-04-27 16:55 31.70785 -11.31829 36946 ft 428 kts 218°
2026-04-27 16:55 31.66048 -11.36056 36948 ft 427 kts 218°
2026-04-27 16:56 31.61320 -11.40274 36953 ft 427 kts 218°
2026-04-27 16:56 31.56588 -11.44485 36951 ft 427 kts 218°
2026-04-27 16:57 31.51849 -11.48692 36949 ft 427 kts 218°
2026-04-27 16:57 31.47118 -11.52891 36952 ft 427 kts 218°
2026-04-27 16:58 31.42383 -11.57087 36958 ft 427 kts 218°
2026-04-27 16:58 31.37650 -11.61269 36959 ft 427 kts 218°
2026-04-27 16:59 31.32913 -11.65456 36954 ft 426 kts 218°
2026-04-27 16:59 31.28178 -11.69632 36959 ft 426 kts 218°
2026-04-27 17:00 31.21078 -11.75888 36968 ft 426 kts 218°
2026-04-27 17:01 31.16340 -11.80045 36970 ft 426 kts 218°
2026-04-27 17:01 31.11579 -11.84221 36966 ft 425 kts 218°
2026-04-27 17:02 31.06854 -11.88369 36972 ft 425 kts 218°
2026-04-27 17:02 31.02126 -11.92509 36982 ft 424 kts 218°
2026-04-27 17:03 30.97407 -11.96639 36977 ft 424 kts 218°
2026-04-27 17:03 30.92691 -12.00760 36981 ft 424 kts 218°
2026-04-27 17:04 30.87978 -12.04876 36986 ft 423 kts 218°
2026-04-27 17:04 30.83262 -12.08978 36976 ft 422 kts 218°
2026-04-27 17:05 30.78562 -12.13075 36970 ft 422 kts 218°
2026-04-27 17:05 30.73869 -12.17163 36979 ft 422 kts 218°
2026-04-27 17:06 30.69168 -12.21248 36976 ft 422 kts 218°
2026-04-27 17:06 30.64466 -12.25325 36974 ft 422 kts 218°
2026-04-27 17:07 30.59756 -12.29394 36984 ft 422 kts 218°
2026-04-27 17:07 30.55039 -12.33472 36992 ft 423 kts 218°
2026-04-27 17:08 30.50324 -12.37541 36993 ft 423 kts 218°
2026-04-27 17:08 30.45602 -12.41609 37000 ft 423 kts 217°
2026-04-27 17:09 30.40844 -12.45693 36994 ft 423 kts 217°
2026-04-27 17:09 30.36112 -12.49756 37001 ft 423 kts 218°
2026-04-27 17:10 30.31383 -12.53811 37002 ft 423 kts 217°
2026-04-27 17:10 30.26644 -12.57863 37000 ft 424 kts 217°
2026-04-27 17:11 30.22702 -12.61234 37006 ft 424 kts 218°
2026-04-27 17:11 30.15590 -12.67321 37012 ft 424 kts 218°
2026-04-27 17:12 30.08431 -12.73415 37011 ft 424 kts 218°
2026-04-27 17:13 30.03683 -12.77471 37018 ft 425 kts 218°
2026-04-27 17:13 29.98939 -12.81531 37021 ft 425 kts 218°
2026-04-27 17:14 29.94183 -12.85594 37019 ft 425 kts 218°
2026-04-27 17:14 29.89427 -12.89646 37017 ft 425 kts 218°
2026-04-27 17:15 29.84663 -12.93696 37022 ft 426 kts 218°
2026-04-27 17:15 29.79904 -12.97743 37016 ft 426 kts 218°
2026-04-27 17:16 29.75128 -13.01794 37018 ft 426 kts 218°
2026-04-27 17:16 29.70363 -13.05836 37026 ft 426 kts 218°
2026-04-27 17:17 29.65588 -13.09884 37030 ft 426 kts 218°
2026-04-27 17:17 29.60813 -13.13916 37036 ft 426 kts 218°
2026-04-27 17:18 29.53640 -13.19966 37029 ft 426 kts 218°
2026-04-27 17:18 29.48864 -13.23990 37038 ft 426 kts 218°
2026-04-27 17:19 29.44050 -13.28050 37032 ft 426 kts 218°
2026-04-27 17:19 29.39269 -13.32073 37032 ft 426 kts 218°
2026-04-27 17:20 29.34480 -13.36086 37038 ft 426 kts 218°
2026-04-27 17:20 29.29684 -13.40095 37037 ft 427 kts 218°
2026-04-27 17:21 29.24895 -13.44104 37031 ft 426 kts 218°
2026-04-27 17:21 29.20112 -13.48122 37033 ft 427 kts 218°
2026-04-27 17:22 29.15348 -13.52169 37029 ft 426 kts 220°
2026-04-27 17:22 29.10836 -13.56540 37017 ft 425 kts 224°
2026-04-27 17:23 29.06443 -13.61059 37013 ft 425 kts 224°
2026-04-27 17:23 29.02009 -13.65531 37011 ft 425 kts 223°
2026-04-27 17:24 28.97526 -13.69949 37003 ft 425 kts 223°
2026-04-27 17:24 28.93032 -13.74352 37008 ft 425 kts 223°
2026-04-27 17:25 28.88548 -13.78749 37012 ft 425 kts 223°
2026-04-27 17:25 28.84063 -13.83150 37009 ft 425 kts 223°
2026-04-27 17:26 28.79580 -13.87562 37027 ft 425 kts 223°
2026-04-27 17:26 28.75062 -13.91995 37038 ft 426 kts 223°
2026-04-27 17:27 28.70871 -13.96099 37035 ft 426 kts 224°
2026-04-27 17:27 28.66375 -14.00502 37033 ft 426 kts 223°
2026-04-27 17:28 28.61879 -14.04894 37015 ft 426 kts 224°
2026-04-27 17:28 28.57379 -14.09287 36445 ft 426 kts 224°
2026-04-27 17:29 28.55127 -14.11480 35708 ft 427 kts 223°
2026-04-27 17:29 28.52866 -14.13681 34951 ft 429 kts 223°
2026-04-27 17:29 28.50592 -14.15894 34142 ft 432 kts 223°
2026-04-27 17:29 28.48299 -14.18120 33190 ft 435 kts 223°
2026-04-27 17:30 28.45990 -14.20363 32300 ft 437 kts 223°
2026-04-27 17:30 28.41334 -14.24893 30363 ft 445 kts 222°
2026-04-27 17:30 28.38982 -14.27179 29579 ft 443 kts 222°
2026-04-27 17:31 28.36653 -14.29436 28897 ft 437 kts 222°
2026-04-27 17:31 28.34354 -14.31664 28215 ft 432 kts 222°
2026-04-27 17:31 28.32079 -14.33868 27558 ft 428 kts 222°
2026-04-27 17:31 28.29824 -14.36052 26901 ft 425 kts 222°
2026-04-27 17:32 28.27587 -14.38218 26252 ft 421 kts 222°
2026-04-27 17:32 28.23152 -14.42494 24985 ft 416 kts 222°
2026-04-27 17:32 28.20953 -14.44611 24364 ft 413 kts 221°
2026-04-27 17:33 28.18768 -14.46719 23754 ft 411 kts 221°
2026-04-27 17:33 28.16596 -14.48818 23080 ft 410 kts 221°
2026-04-27 17:33 28.14437 -14.50899 22526 ft 405 kts 221°
2026-04-27 17:33 28.12302 -14.52959 21975 ft 401 kts 221°
2026-04-27 17:34 28.10188 -14.54998 21462 ft 397 kts 221°
2026-04-27 17:34 28.08064 -14.57044 20951 ft 394 kts 221°
2026-04-27 17:34 28.05987 -14.59045 20461 ft 390 kts 221°
2026-04-27 17:34 28.03927 -14.61030 19973 ft 387 kts 221°
2026-04-27 17:35 28.01882 -14.62997 19491 ft 384 kts 221°
2026-04-27 17:35 27.99871 -14.64974 19012 ft 381 kts 225°
2026-04-27 17:35 27.98037 -14.67124 18523 ft 378 kts 227°
2026-04-27 17:35 27.96227 -14.69267 17991 ft 377 kts 227°
2026-04-27 17:36 27.94422 -14.71401 17480 ft 374 kts 227°
2026-04-27 17:36 27.92632 -14.73516 16986 ft 371 kts 228°
2026-04-27 17:36 27.90856 -14.75612 16485 ft 368 kts 228°
2026-04-27 17:36 27.89091 -14.77696 15971 ft 366 kts 228°
2026-04-27 17:37 27.87334 -14.79770 15468 ft 364 kts 227°
2026-04-27 17:37 27.85582 -14.81835 14958 ft 363 kts 227°
2026-04-27 17:37 27.83839 -14.83890 14446 ft 362 kts 228°
2026-04-27 17:37 27.82099 -14.85941 13933 ft 361 kts 228°
2026-04-27 17:38 27.80364 -14.87988 13378 ft 360 kts 228°
2026-04-27 17:38 27.78650 -14.90009 13084 ft 351 kts 228°
2026-04-27 17:38 27.76993 -14.91954 12954 ft 337 kts 228°
2026-04-27 17:38 27.75391 -14.93831 12809 ft 325 kts 228°
2026-04-27 17:39 27.73848 -14.95640 12678 ft 314 kts 229°
2026-04-27 17:39 27.72359 -14.97389 12558 ft 304 kts 229°
2026-04-27 17:39 27.70916 -14.99087 12427 ft 295 kts 229°
2026-04-27 17:39 27.69649 -15.00837 12299 ft 282 kts 242°
2026-04-27 17:40 27.68777 -15.02765 12084 ft 271 kts 247°
2026-04-27 17:40 27.67954 -15.04663 11550 ft 269 kts 246°
2026-04-27 17:40 27.67131 -15.06547 11058 ft 266 kts 246°
2026-04-27 17:40 27.66313 -15.08416 10653 ft 267 kts 246°
2026-04-27 17:41 27.65489 -15.10301 10239 ft 269 kts 246°
2026-04-27 17:41 27.64671 -15.12172 9842 ft 264 kts 246°
2026-04-27 17:41 27.64047 -15.14092 9429 ft 258 kts 263°
2026-04-27 17:41 27.63998 -15.16120 9041 ft 255 kts 282°
2026-04-27 17:42 27.64495 -15.18018 8660 ft 251 kts 295°
2026-04-27 17:42 27.65146 -15.19845 8295 ft 250 kts 294°
2026-04-27 17:42 27.65785 -15.21660 7954 ft 248 kts 294°
2026-04-27 17:42 27.66418 -15.23467 7590 ft 246 kts 293°
2026-04-27 17:43 27.67038 -15.25245 7193 ft 242 kts 294°
2026-04-27 17:43 27.67652 -15.27002 6837 ft 240 kts 293°
2026-04-27 17:43 27.68056 -15.28158 6603 ft 238 kts 294°
2026-04-27 17:43 27.68662 -15.29888 6243 ft 237 kts 293°
2026-04-27 17:44 27.69264 -15.31613 5888 ft 236 kts 293°
2026-04-27 17:44 27.69863 -15.33327 5534 ft 234 kts 294°
2026-04-27 17:44 27.70458 -15.35030 5195 ft 232 kts 294°
2026-04-27 17:44 27.71046 -15.36717 4851 ft 231 kts 294°
2026-04-27 17:45 27.71632 -15.38395 4501 ft 230 kts 293°
2026-04-27 17:45 27.72220 -15.40076 4154 ft 230 kts 294°
2026-04-27 17:45 27.72829 -15.41738 3809 ft 228 kts 301°
2026-04-27 17:45 27.73816 -15.43110 3475 ft 225 kts 322°
2026-04-27 17:46 27.75157 -15.43969 3245 ft 219 kts 336°
2026-04-27 17:46 27.76514 -15.44674 3092 ft 210 kts 338°
2026-04-27 17:46 27.77897 -15.45039 2931 ft 202 kts 358°
2026-04-27 17:46 27.79262 -15.44805 2726 ft 199 kts 18°
2026-04-27 17:47 27.80544 -15.44242 2474 ft 195 kts 19°
2026-04-27 17:47 27.81384 -15.43871 2325 ft 189 kts 19°
2026-04-27 17:47 27.82938 -15.43184 1977 ft 170 kts 19°
2026-04-27 17:47 27.83985 -15.42721 1782 ft 152 kts 19°
2026-04-27 17:48 27.84922 -15.42307 1555 ft 139 kts 19°
2026-04-27 17:48 27.85801 -15.41911 1311 ft 133 kts 19°
2026-04-27 17:48 27.86653 -15.41526 1092 ft 132 kts 20°
2026-04-27 17:48 27.87517 -15.41154 935 ft 132 kts 19°
2026-04-27 17:49 27.88360 -15.40784 787 ft 131 kts 17°
2026-04-27 17:49 27.89204 -15.40409 661 ft 129 kts 17°
2026-04-27 17:49 27.90041 -15.40046 505 ft 128 kts 17°
2026-04-27 17:49 27.90865 -15.39685 367 ft 125 kts 20°
2026-04-27 17:50 27.91666 -15.39331 176 ft 123 kts 19°
2026-04-27 17:50 27.93003 -15.38742 58 ft 54 kts 21°
2026-04-27 17:50 27.93189 -15.38719 64 ft 16 kts 349°
2026-04-27 17:51 27.93267 -15.38736 70 ft 8 kts 349°
2026-04-27 17:51 27.93318 -15.38747 72 ft 7 kts 349°
2026-04-27 17:51 27.93358 -15.38755 75 ft 5 kts 349°
2026-04-27 17:51 27.93391 -15.38759 76 ft 5 kts
2026-04-27 17:52 27.93436 -15.38741 74 ft 8 kts 21°
2026-04-27 17:52 27.93487 -15.38720 71 ft 7 kts 19°
2026-04-27 17:52 27.93515 -15.38723 74 ft 2 kts 305°
2026-04-27 17:52 27.93515 -15.38727 75 ft 0 kts 291°
2026-04-27 17:53 27.93519 -15.38737 84 ft 4 kts 291°
2026-04-27 17:53 27.93525 -15.38755 90 ft 0 kts 290°
2026-04-27 17:53 27.93530 -15.38770 82 ft 3 kts 290°
2026-04-27 17:53 27.93534 -15.38784 82 ft 1 kts 291°
2026-04-27 17:54 27.93535 -15.38787 81 ft 0 kts 291°